QPF
0.01 0.00 0.01 0.02 0.02 0.01 0.02 0.02 0.02 0.02 0.02 0.03 0.01 0.00 0.00 0.00 0.00 0.00 0.00 0.00 0.01 0.01 0.01 0.02 0.03 0.03 0.04 0.04 0.04 0.06 0.12 0.16 0.18 0.19 0.15 0.12 0.09 0.08 0.07 0.07 0.08 0.07 0.04 0.02
0.01 0.00 0.01 0.01 0.01 0.01 0.01 0.01 0.01 0.01 0.02 0.02 0.01 0.00 0.00 0.00 0.00 0.00 0.00 0.00 0.00 0.01 0.01 0.01 0.02 0.03 0.03 0.04 0.04 0.05 0.10 0.12 0.14 0.20 0.21 0.17 0.12 0.08 0.07 0.07 0.08 0.08 0.06 0.04
0.02 0.00 0.01 0.01 0.01 0.01 0.01 0.01 0.01 0.01 0.01 0.01 0.00 0.00 0.00 0.00 0.00 0.00 0.00 0.00 0.00 0.00 0.01 0.01 0.01 0.02 0.03 0.03 0.03 0.04 0.07 0.09 0.10 0.15 0.20 0.20 0.15 0.09 0.06 0.06 0.08 0.09 0.08 0.05
0.03 0.02 0.02 0.01 0.01 0.01 0.01 0.01 0.00 0.01 0.01 0.00 0.00 0.00 0.00 0.00 0.00 0.00 0.00 0.00 0.00 0.00 0.00 0.00 0.01 0.01 0.03 0.03 0.03 0.03 0.04 0.07 0.08 0.11 0.15 0.16 0.16 0.12 0.06 0.05 0.07 0.09 0.08 0.07
0.05 0.03 0.01 0.00 0.00 0.01 0.01 0.01 0.01 0.01 0.01 0.00 0.00 0.00 0.00 0.00 0.00 0.00 0.00 0.00 0.00 0.00 0.00 0.00 0.00 0.01 0.02 0.03 0.03 0.03 0.03 0.04 0.05 0.09 0.12 0.13 0.12 0.12 0.08 0.05 0.05 0.07 0.09 0.09
0.06 0.04 0.01 0.00 0.01 0.00 0.01 0.01 0.00 0.01 0.01 0.00 0.01 0.01 0.01 0.01 0.00 0.00 0.00 0.00 0.00 0.00 0.00 0.00 0.00 0.00 0.01 0.02 0.02 0.03 0.02 0.02 0.03 0.05 0.09 0.11 0.09 0.08 0.07 0.05 0.05 0.05 0.06 0.08
0.04 0.04 0.01 0.01 0.01 0.00 0.01 0.01 0.01 0.01 0.01 0.00 0.01 0.01 0.01 0.01 0.00 0.00 0.00 0.00 0.00 0.00 0.00 0.00 0.00 0.00 0.00 0.01 0.01 0.02 0.02 0.02 0.02 0.02 0.05 0.08 0.07 0.06 0.06 0.04 0.05 0.05 0.05 0.06
0.03 0.05 0.02 0.01 0.01 0.01 0.01 0.01 0.01 0.00 0.00 0.00 0.00 0.00 0.01 0.01 0.01 0.00 0.00 0.00 0.00 0.00 0.00 0.00 0.00 0.00 0.00 0.00 0.01 0.02 0.02 0.02 0.02 0.02 0.03 0.05 0.06 0.05 0.05 0.04 0.04 0.06 0.06 0.06
0.02 0.01 0.01 0.01 0.01 0.01 0.01 0.00 0.00 0.00 0.00 0.00 0.00 0.00 0.01 0.01 0.01 0.01 0.01 0.00 0.00 0.00 0.01 0.00 0.00 0.00 0.00 0.00 0.01 0.01 0.02 0.02 0.02 0.02 0.02 0.03 0.05 0.05 0.04 0.04 0.05 0.06 0.06 0.06
0.01 0.00 0.00 0.01 0.01 0.01 0.01 0.00 0.00 0.00 0.00 0.00 0.00 0.00 0.01 0.01 0.01 0.01 0.01 0.00 0.00 0.01 0.01 0.01 0.01 0.01 0.01 0.00 0.01 0.01 0.01 0.02 0.02 0.03 0.03 0.03 0.03 0.05 0.05 0.04 0.04 0.05 0.06 0.05
0.00 0.00 0.00 0.00 0.00 0.01 0.01 0.00 0.00 0.00 0.00 0.00 0.00 0.01 0.00 0.01 0.01 0.01 0.01 0.00 0.00 0.01 0.01 0.01 0.01 0.01 0.01 0.01 0.01 0.01 0.01 0.01 0.02 0.03 0.04 0.03 0.03 0.03 0.05 0.04 0.04 0.04 0.05 0.05
0.01 0.00 0.00 0.00 0.00 0.01 0.01 0.01 0.00 0.00 0.00 0.00 0.00 0.01 0.01 0.01 0.01 0.01 0.01 0.00 0.00 0.01 0.01 0.01 0.01 0.01 0.01 0.01 0.02 0.02 0.02 0.02 0.02 0.03 0.05 0.04 0.03 0.03 0.04 0.04 0.04 0.04 0.04 0.05
0.00 0.00 0.00 0.00 0.00 0.00 0.01 0.01 0.00 0.00 0.00 0.00 0.00 0.01 0.01 0.01 0.01 0.01 0.01 0.01 0.01 0.01 0.01 0.02 0.01 0.01 0.01 0.02 0.03 0.03 0.03 0.03 0.03 0.03 0.04 0.04 0.04 0.03 0.03 0.04 0.04 0.05 0.05 0.05
0.00 0.00 0.00 0.00 0.00 0.00 0.01 0.01 0.00 0.00 0.00 0.00 0.00 0.00 0.01 0.01 0.01 0.02 0.02 0.02 0.01 0.01 0.02 0.02 0.02 0.01 0.01 0.02 0.03 0.04 0.05 0.05 0.04 0.04 0.03 0.03 0.03 0.03 0.03 0.04 0.05 0.06 0.07 0.07
0.00 0.00 0.00 0.00 0.00 0.00 0.00 0.01 0.00 0.00 0.00 0.00 0.00 0.00 0.01 0.01 0.01 0.02 0.02 0.01 0.01 0.01 0.01 0.02 0.02 0.01 0.01 0.02 0.03 0.05 0.07 0.07 0.06 0.04 0.03 0.02 0.03 0.03 0.04 0.05 0.06 0.07 0.09 0.09
0.00 0.00 0.00 0.00 0.00 0.00 0.00 0.00 0.01 0.01 0.01 0.01 0.01 0.01 0.01 0.01 0.02 0.02 0.01 0.01 0.01 0.01 0.01 0.01 0.02 0.02 0.02 0.03 0.04 0.05 0.08 0.09 0.08 0.05 0.04 0.03 0.03 0.04 0.04 0.05 0.06 0.07 0.09 0.09
0.00 0.00 0.00 0.00 0.00 0.00 0.00 0.00 0.01 0.01 0.01 0.01 0.01 0.01 0.01 0.01 0.02 0.02 0.01 0.01 0.01 0.00 0.00 0.01 0.01 0.01 0.02 0.03 0.04 0.06 0.08 0.08 0.08 0.07 0.06 0.05 0.04 0.04 0.04 0.05 0.06 0.07 0.08 0.08
0.00 0.00 0.00 0.00 0.00 0.00 0.00 0.00 0.01 0.01 0.01 0.01 0.01 0.01 0.01 0.02 0.02 0.02 0.01 0.01 0.01 0.01 0.01 0.01 0.01 0.01 0.02 0.03 0.05 0.05 0.07 0.08 0.07 0.06 0.07 0.07 0.06 0.06 0.06 0.06 0.07 0.08 0.08 0.08
0.00 0.00 0.00 0.00 0.00 0.00 0.00 0.01 0.01 0.01 0.01 0.01 0.01 0.01 0.01 0.02 0.02 0.02 0.02 0.02 0.01 0.01 0.01 0.01 0.01 0.01 0.02 0.04 0.05 0.05 0.06 0.07 0.07 0.07 0.07 0.09 0.10 0.09 0.09 0.08 0.09 0.09 0.08 0.07
0.00 0.00 0.00 0.00 0.00 0.00 0.01 0.01 0.01 0.01 0.01 0.01 0.01 0.01 0.01 0.02 0.02 0.02 0.02 0.02 0.01 0.01 0.01 0.01 0.01 0.01 0.03 0.04 0.05 0.05 0.05 0.06 0.07 0.07 0.07 0.08 0.09 0.11 0.11 0.10 0.10 0.11 0.09 0.08
0.00 0.00 0.00 0.00 0.00 0.00 0.00 0.01 0.01 0.01 0.00 0.01 0.01 0.02 0.02 0.02 0.03 0.03 0.03 0.02 0.02 0.02 0.02 0.02 0.02 0.02 0.03 0.04 0.05 0.05 0.05 0.06 0.07 0.07 0.07 0.08 0.09 0.10 0.12 0.11 0.10 0.10 0.09 0.08
0.00 0.00 0.00 0.00 0.00 0.00 0.00 0.00 0.00 0.00 0.00 0.01 0.01 0.02 0.02 0.03 0.03 0.03 0.03 0.03 0.03 0.03 0.03 0.03 0.02 0.03 0.05 0.05 0.04 0.04 0.04 0.05 0.06 0.07 0.08 0.08 0.08 0.09 0.10 0.11 0.11 0.10 0.09 0.08
0.00 0.00 0.00 0.00 0.00 0.00 0.00 0.00 0.00 0.00 0.01 0.01 0.01 0.02 0.03 0.03 0.04 0.04 0.04 0.03 0.03 0.04 0.04 0.03 0.03 0.04 0.06 0.05 0.04 0.04 0.04 0.04 0.05 0.06 0.07 0.07 0.08 0.08 0.09 0.10 0.10 0.10 0.09 0.08
0.00 0.00 0.00 0.00 0.00 0.00 0.00 0.00 0.00 0.00 0.01 0.01 0.02 0.02 0.03 0.03 0.03 0.04 0.04 0.04 0.04 0.05 0.05 0.05 0.05 0.05 0.05 0.04 0.04 0.04 0.04 0.04 0.04 0.05 0.05 0.06 0.08 0.09 0.09 0.10 0.10 0.09 0.08 0.07
0.00 0.00 0.00 0.00 0.00 0.00 0.00 0.00 0.00 0.00 0.01 0.01 0.02 0.02 0.03 0.03 0.04 0.04 0.04 0.04 0.05 0.06 0.06 0.07 0.07 0.07 0.05 0.04 0.04 0.04 0.04 0.04 0.04 0.04 0.05 0.06 0.08 0.10 0.10 0.10 0.09 0.09 0.08 0.07
0.00 0.00 0.00 0.00 0.00 0.01 0.01 0.01 0.01 0.01 0.01 0.01 0.02 0.02 0.03 0.04 0.04 0.04 0.04 0.04 0.04 0.05 0.06 0.07 0.07 0.06 0.05 0.04 0.04 0.04 0.03 0.03 0.03 0.04 0.05 0.06 0.08 0.10 0.10 0.09 0.08 0.08 0.08 0.07
0.00 0.00 0.00 0.01 0.01 0.01 0.01 0.01 0.01 0.01 0.01 0.02 0.02 0.02 0.03 0.04 0.04 0.04 0.04 0.04 0.04 0.04 0.05 0.06 0.06 0.06 0.05 0.05 0.04 0.04 0.03 0.03 0.03 0.04 0.05 0.06 0.08 0.09 0.08 0.07 0.07 0.08 0.08 0.07
MSLP
1012.91 1012.85 1012.77 1012.66 1012.50 1012.26 1011.91 1011.44 1010.86 1010.18 1009.43 1008.65 1007.88 1007.17 1006.55 1006.05 1005.67 1005.39 1005.21 1005.08 1004.99 1004.89 1004.76 1004.58 1004.34 1004.02 1003.62 1003.12 1002.55 1001.89 1001.17 1000.41 999.64 998.92 998.29 997.79 997.48 997.38 997.50 997.83 998.35 999.03 999.80 1000.62
1012.28 1011.99 1011.65 1011.25 1010.82 1010.36 1009.89 1009.40 1008.90 1008.39 1007.89 1007.40 1006.94 1006.50 1006.11 1005.75 1005.44 1005.18 1004.95 1004.76 1004.60 1004.45 1004.31 1004.17 1004.00 1003.79 1003.51 1003.14 1002.68 1002.11 1001.43 1000.68 999.88 999.09 998.35 997.73 997.28 997.04 997.02 997.23 997.65 998.24 998.96 999.75
1011.42 1010.95 1010.38 1009.74 1009.07 1008.43 1007.83 1007.31 1006.87 1006.51 1006.22 1005.99 1005.80 1005.62 1005.45 1005.26 1005.06 1004.84 1004.62 1004.40 1004.20 1004.03 1003.88 1003.76 1003.65 1003.51 1003.33 1003.06 1002.68 1002.19 1001.56 1000.83 1000.02 999.18 998.37 997.66 997.11 996.75 996.61 996.71 997.02 997.53 998.18 998.93
1010.36 1009.75 1009.01 1008.19 1007.36 1006.57 1005.89 1005.34 1004.94 1004.69 1004.57 1004.56 1004.59 1004.64 1004.67 1004.65 1004.56 1004.42 1004.24 1004.03 1003.82 1003.64 1003.49 1003.38 1003.29 1003.20 1003.08 1002.88 1002.57 1002.13 1001.55 1000.84 1000.03 999.17 998.32 997.55 996.91 996.46 996.22 996.22 996.43 996.85 997.44 998.14
1009.11 1008.43 1007.60 1006.68 1005.75 1004.88 1004.15 1003.59 1003.23 1003.07 1003.08 1003.22 1003.43 1003.66 1003.86 1003.98 1004.01 1003.96 1003.83 1003.65 1003.45 1003.27 1003.12 1003.02 1002.94 1002.88 1002.78 1002.62 1002.35 1001.95 1001.41 1000.72 999.93 999.06 998.19 997.37 996.68 996.15 995.82 995.72 995.85 996.19 996.71 997.37
1007.73 1007.02 1006.16 1005.22 1004.27 1003.39 1002.66 1002.13 1001.81 1001.72 1001.82 1002.07 1002.41 1002.76 1003.08 1003.32 1003.45 1003.48 1003.40 1003.26 1003.09 1002.92 1002.77 1002.66 1002.59 1002.52 1002.44 1002.30 1002.05 1001.68 1001.16 1000.50 999.72 998.86 997.98 997.13 996.39 995.79 995.39 995.21 995.25 995.51 995.97 996.59
1006.23 1005.54 1004.72 1003.82 1002.92 1002.10 1001.43 1000.94 1000.69 1000.65 1000.82 1001.14 1001.55 1001.98 1002.38 1002.70 1002.90 1002.98 1002.96 1002.86 1002.71 1002.55 1002.40 1002.29 1002.21 1002.14 1002.05 1001.91 1001.68 1001.32 1000.83 1000.19 999.43 998.59 997.70 996.83 996.04 995.39 994.92 994.66 994.62 994.81 995.21 995.80
1004.61 1003.99 1003.26 1002.46 1001.68 1000.96 1000.39 999.99 999.81 999.84 1000.05 1000.41 1000.85 1001.32 1001.76 1002.11 1002.36 1002.48 1002.49 1002.41 1002.28 1002.13 1001.99 1001.87 1001.78 1001.70 1001.61 1001.47 1001.25 1000.91 1000.44 999.82 999.09 998.25 997.36 996.47 995.65 994.94 994.40 994.07 993.96 994.09 994.45 995.02
1002.90 1002.37 1001.76 1001.11 1000.48 999.93 999.49 999.21 999.11 999.20 999.45 999.83 1000.29 1000.76 1001.20 1001.56 1001.81 1001.95 1001.98 1001.92 1001.80 1001.66 1001.52 1001.39 1001.30 1001.21 1001.12 1000.98 1000.77 1000.45 1000.00 999.41 998.69 997.87 996.97 996.07 995.21 994.45 993.86 993.46 993.30 993.38 993.71 994.27
1001.11 1000.69 1000.23 999.76 999.32 998.94 998.67 998.52 998.53 998.68 998.97 999.36 999.80 1000.26 1000.67 1001.02 1001.26 1001.39 1001.43 1001.37 1001.26 1001.12 1000.98 1000.86 1000.76 1000.68 1000.59 1000.47 1000.27 999.97 999.54 998.98 998.27 997.46 996.56 995.63 994.74 993.95 993.30 992.86 992.65 992.71 993.03 993.60
999.29 998.99 998.69 998.41 998.17 997.99 997.89 997.89 998.01 998.23 998.55 998.94 999.37 999.79 1000.18 1000.49 1000.70 1000.82 1000.84 1000.79 1000.68 1000.55 1000.42 1000.30 1000.21 1000.14 1000.06 999.94 999.76 999.48 999.07 998.53 997.84 997.02 996.12 995.18 994.27 993.44 992.77 992.29 992.07 992.12 992.45 993.05
997.51 997.34 997.22 997.13 997.09 997.10 997.17 997.32 997.54 997.83 998.18 998.57 998.98 999.37 999.71 999.98 1000.16 1000.26 1000.27 1000.21 1000.11 999.99 999.87 999.76 999.68 999.61 999.54 999.44 999.27 999.01 998.61 998.07 997.39 996.58 995.68 994.73 993.81 992.97 992.28 991.81 991.59 991.65 992.02 992.66
995.90 995.87 995.90 996.00 996.14 996.33 996.56 996.83 997.14 997.49 997.87 998.25 998.63 998.98 999.28 999.52 999.67 999.75 999.75 999.69 999.59 999.48 999.37 999.28 999.21 999.15 999.09 998.99 998.82 998.56 998.16 997.63 996.95 996.14 995.24 994.29 993.37 992.54 991.88 991.43 991.24 991.35 991.77 992.47
994.57 994.67 994.86 995.11 995.41 995.75 996.11 996.48 996.86 997.25 997.64 998.01 998.36 998.67 998.93 999.12 999.25 999.31 999.30 999.25 999.16 999.06 998.96 998.88 998.82 998.76 998.70 998.59 998.41 998.13 997.73 997.18 996.49 995.69 994.79 993.86 992.97 992.18 991.56 991.17 991.06 991.24 991.73 992.50
993.65 993.87 994.19 994.57 995.00 995.44 995.89 996.32 996.74 997.14 997.52 997.86 998.17 998.44 998.66 998.82 998.92 998.96 998.96 998.91 998.83 998.74 998.66 998.58 998.52 998.45 998.37 998.23 998.03 997.72 997.28 996.72 996.02 995.21 994.34 993.44 992.60 991.88 991.35 991.05 991.03 991.30 991.89 992.74
993.19 993.53 993.95 994.43 994.94 995.45 995.94 996.39 996.81 997.19 997.53 997.83 998.10 998.31 998.49 998.61 998.69 998.72 998.70 998.66 998.59 998.51 998.43 998.35 998.27 998.18 998.06 997.88 997.63 997.27 996.80 996.21 995.50 994.70 993.85 993.02 992.26 991.63 991.21 991.03 991.14 991.54 992.23 993.18
993.25 993.67 994.17 994.71 995.25 995.77 996.26 996.69 997.07 997.40 997.68 997.92 998.12 998.28 998.40 998.48 998.53 998.55 998.53 998.48 998.41 998.33 998.24 998.14 998.03 997.90 997.72 997.49 997.17 996.76 996.24 995.62 994.90 994.12 993.33 992.57 991.91 991.41 991.13 991.10 991.36 991.90 992.72 993.77
993.77 994.26 994.79 995.34 995.88 996.37 996.81 997.18 997.49 997.74 997.94 998.10 998.22 998.31 998.38 998.42 998.44 998.43 998.39 998.33 998.25 998.15 998.03 997.90 997.74 997.55 997.31 997.00 996.61 996.14 995.57 994.92 994.21 993.46 992.74 992.08 991.55 991.20 991.09 991.23 991.65 992.35 993.30 994.46
994.69 995.20 995.74 996.26 996.75 997.17 997.52 997.80 998.01 998.17 998.27 998.34 998.38 998.40 998.40 998.39 998.37 998.32 998.25 998.17 998.05 997.92 997.76 997.57 997.34 997.07 996.75 996.37 995.91 995.37 994.77 994.11 993.41 992.72 992.08 991.55 991.17 990.99 991.05 991.38 991.98 992.83 993.92 995.19
995.86 996.37 996.87 997.33 997.73 998.05 998.30 998.47 998.56 998.61 998.61 998.59 998.55 998.49 998.44 998.37 998.29 998.20 998.09 997.96 997.80 997.60 997.38 997.11 996.81 996.46 996.05 995.59 995.06 994.48 993.85 993.19 992.54 991.93 991.40 991.00 990.79 990.80 991.05 991.56 992.33 993.34 994.56 995.93
997.14 997.61 998.04 998.41 998.70 998.91 999.03 999.08 999.07 999.01 998.92 998.81 998.69 998.57 998.45 998.33 998.20 998.05 997.88 997.68 997.45 997.19 996.88 996.53 996.14 995.70 995.21 994.67 994.09 993.48 992.85 992.23 991.64 991.13 990.73 990.50 990.46 990.65 991.09 991.78 992.72 993.87 995.21 996.67
998.40 998.80 999.13 999.39 999.56 999.64 999.64 999.58 999.46 999.31 999.14 998.96 998.77 998.60 998.42 998.24 998.05 997.84 997.61 997.33 997.02 996.67 996.27 995.83 995.35 994.83 994.27 993.68 993.07 992.46 991.86 991.30 990.80 990.41 990.17 990.10 990.24 990.62 991.23 992.09 993.17 994.45 995.88 997.41
999.52 999.82 1000.03 1000.17 1000.21 1000.17 1000.06 999.90 999.69 999.46 999.22 998.99 998.75 998.53 998.30 998.07 997.83 997.55 997.25 996.90 996.50 996.06 995.58 995.05 994.49 993.90 993.30 992.68 992.07 991.49 990.95 990.48 990.10 989.86 989.78 989.89 990.21 990.76 991.54 992.54 993.74 995.11 996.60 998.17
1000.42 1000.59 1000.68 1000.69 1000.61 1000.46 1000.25 999.99 999.72 999.43 999.14 998.86 998.59 998.33 998.06 997.78 997.49 997.15 996.78 996.36 995.89 995.37 994.81 994.22 993.60 992.98 992.35 991.74 991.17 990.65 990.21 989.86 989.63 989.55 989.64 989.93 990.43 991.14 992.06 993.18 994.47 995.89 997.42 999.00
1001.03 1001.08 1001.05 1000.93 1000.74 1000.48 1000.18 999.86 999.52 999.18 998.85 998.54 998.24 997.95 997.65 997.34 997.00 996.62 996.19 995.71 995.18 994.61 994.00 993.37 992.74 992.10 991.50 990.94 990.44 990.02 989.70 989.50 989.44 989.54 989.81 990.28 990.94 991.79 992.83 994.03 995.38 996.83 998.36 999.92
1001.35 1001.27 1001.12 1000.89 1000.59 1000.25 999.87 999.48 999.09 998.71 998.35 998.01 997.69 997.37 997.04 996.70 996.33 995.91 995.45 994.94 994.38 993.79 993.17 992.54 991.93 991.34 990.80 990.33 989.94 989.65 989.49 989.46 989.57 989.85 990.30 990.93 991.73 992.70 993.83 995.09 996.46 997.91 999.41 1000.92
1001.37 1001.18 1000.92 1000.59 1000.21 999.78 999.34 998.89 998.45 998.03 997.63 997.26 996.91 996.57 996.22 995.86 995.47 995.04 994.57 994.06 993.51 992.94 992.35 991.78 991.23 990.72 990.29 989.94 989.69 989.57 989.57 989.72 990.02 990.48 991.09 991.86 992.79 993.85 995.03 996.32 997.69 999.12 1000.56 1002.00
Thickness
5452 5459 5456 5453 5454 5454 5449 5449 5447 5463 5470 5478 5477 5477 5480 5483 5486 5490 5493 5496 5499 5502 5507 5514 5519 5526 5533 5542 5549 5556 5564 5573 5581 5589 5596 5603 5608 5613 5617 5620 5623 5625 5627 5627
5445 5456 5453 5455 5461 5459 5456 5457 5455 5458 5464 5474 5472 5473 5473 5475 5478 5480 5482 5486 5489 5494 5498 5503 5508 5515 5522 5530 5539 5548 5556 5563 5571 5579 5587 5593 5598 5605 5609 5612 5615 5617 5620 5622
5433 5447 5445 5447 5464 5462 5460 5462 5458 5454 5462 5467 5467 5468 5466 5467 5470 5471 5473 5476 5479 5483 5488 5493 5498 5504 5511 5519 5528 5536 5544 5552 5561 5568 5576 5582 5589 5595 5600 5604 5607 5610 5612 5615
5421 5425 5417 5456 5473 5470 5464 5463 5461 5460 5461 5461 5460 5461 5462 5462 5460 5460 5463 5466 5469 5472 5477 5483 5488 5494 5500 5508 5516 5523 5532 5541 5550 5558 5565 5572 5580 5586 5592 5596 5600 5603 5605 5608
5412 5412 5428 5457 5465 5460 5451 5449 5455 5453 5454 5454 5454 5453 5452 5455 5455 5453 5454 5457 5459 5463 5468 5473 5478 5484 5490 5497 5504 5513 5521 5529 5538 5547 5555 5562 5570 5577 5583 5588 5592 5596 5599 5601
5406 5406 5415 5449 5456 5455 5445 5431 5448 5447 5443 5442 5442 5432 5437 5444 5446 5446 5447 5448 5450 5454 5458 5463 5468 5474 5479 5486 5494 5502 5509 5518 5527 5536 5544 5552 5560 5567 5574 5580 5584 5588 5591 5594
5400 5401 5418 5445 5446 5440 5419 5422 5439 5439 5436 5433 5429 5427 5431 5435 5436 5437 5438 5439 5441 5444 5447 5452 5457 5463 5468 5475 5482 5491 5500 5508 5517 5526 5534 5542 5550 5558 5565 5570 5575 5578 5581 5585
5398 5395 5413 5439 5433 5423 5423 5431 5432 5429 5427 5424 5424 5426 5426 5427 5427 5427 5428 5430 5432 5433 5436 5441 5447 5452 5458 5464 5472 5481 5490 5499 5507 5515 5524 5533 5540 5548 5554 5560 5564 5568 5572 5575
5410 5420 5433 5433 5428 5426 5425 5422 5421 5418 5418 5417 5416 5416 5417 5418 5418 5418 5419 5420 5422 5423 5427 5431 5436 5442 5448 5454 5461 5470 5479 5488 5496 5505 5513 5522 5530 5537 5543 5549 5554 5558 5562 5565
5411 5421 5426 5425 5424 5422 5419 5416 5415 5412 5410 5409 5407 5407 5408 5408 5409 5409 5410 5411 5413 5415 5418 5421 5426 5431 5437 5444 5450 5459 5467 5476 5485 5494 5502 5511 5519 5527 5533 5539 5543 5548 5552 5555
5404 5414 5416 5418 5416 5414 5412 5410 5407 5405 5403 5401 5400 5400 5400 5400 5400 5401 5402 5402 5404 5405 5409 5412 5417 5421 5427 5433 5440 5447 5456 5465 5474 5483 5492 5501 5509 5516 5523 5530 5535 5539 5543 5546
5401 5409 5405 5408 5410 5409 5405 5401 5398 5396 5394 5394 5393 5392 5393 5392 5392 5392 5393 5393 5395 5397 5400 5404 5408 5413 5417 5423 5429 5436 5444 5454 5463 5472 5481 5489 5497 5504 5512 5519 5524 5529 5534 5538
5405 5406 5403 5403 5402 5400 5396 5394 5392 5389 5387 5385 5386 5386 5386 5385 5384 5384 5384 5385 5387 5389 5392 5396 5400 5404 5409 5413 5419 5425 5432 5442 5452 5461 5470 5477 5485 5492 5499 5505 5511 5517 5522 5527
5401 5397 5394 5394 5391 5390 5388 5386 5384 5382 5380 5379 5378 5378 5378 5377 5376 5376 5377 5378 5380 5382 5384 5388 5392 5397 5401 5405 5410 5416 5423 5432 5442 5451 5459 5466 5473 5480 5488 5494 5499 5504 5509 5514
5392 5389 5386 5385 5383 5381 5379 5376 5374 5372 5371 5370 5370 5370 5369 5368 5368 5369 5370 5371 5372 5374 5377 5381 5385 5389 5393 5398 5403 5408 5415 5423 5431 5440 5447 5455 5462 5470 5477 5483 5488 5492 5497 5500
5382 5380 5378 5375 5373 5371 5369 5366 5364 5363 5363 5362 5361 5361 5361 5361 5361 5362 5363 5364 5364 5367 5370 5373 5378 5382 5386 5390 5396 5401 5408 5415 5423 5430 5437 5444 5451 5458 5466 5472 5477 5481 5486 5489
5369 5367 5365 5363 5362 5361 5360 5358 5356 5355 5354 5353 5353 5353 5353 5353 5354 5354 5356 5357 5359 5362 5365 5368 5372 5376 5380 5384 5389 5394 5400 5406 5413 5420 5426 5433 5440 5448 5454 5460 5465 5470 5474 5478
5362 5360 5357 5355 5353 5352 5351 5349 5347 5346 5345 5345 5345 5344 5344 5344 5345 5347 5349 5351 5353 5356 5360 5363 5367 5370 5374 5378 5382 5386 5392 5397 5404 5411 5417 5423 5430 5438 5443 5449 5454 5458 5461 5465
5353 5351 5349 5348 5346 5343 5341 5340 5339 5338 5337 5337 5336 5336 5336 5338 5339 5341 5343 5345 5347 5351 5355 5358 5362 5364 5367 5371 5375 5379 5384 5390 5396 5402 5408 5415 5421 5428 5433 5439 5443 5448 5451 5454
5341 5340 5338 5337 5336 5334 5332 5331 5330 5329 5329 5328 5328 5328 5329 5331 5332 5334 5336 5338 5342 5346 5350 5352 5355 5358 5361 5364 5369 5373 5378 5383 5389 5395 5401 5407 5413 5419 5424 5429 5434 5437 5441 5444
5330 5329 5328 5326 5325 5324 5323 5322 5321 5320 5321 5321 5320 5320 5322 5324 5326 5327 5329 5333 5338 5341 5344 5348 5350 5353 5356 5359 5364 5367 5371 5377 5383 5389 5395 5400 5405 5410 5415 5419 5424 5427 5430 5433
5319 5318 5317 5315 5315 5313 5313 5312 5311 5312 5312 5312 5313 5314 5315 5318 5319 5322 5325 5328 5333 5336 5339 5342 5345 5349 5352 5356 5359 5362 5366 5371 5376 5382 5388 5393 5397 5402 5407 5411 5414 5418 5421 5425
5308 5307 5306 5305 5304 5303 5303 5303 5303 5303 5304 5305 5306 5307 5309 5312 5314 5316 5321 5324 5327 5332 5334 5337 5341 5346 5350 5352 5355 5358 5361 5365 5371 5376 5381 5386 5391 5396 5400 5403 5407 5411 5414 5417
5297 5297 5296 5295 5294 5294 5294 5295 5296 5297 5297 5299 5300 5302 5303 5306 5309 5312 5315 5320 5324 5327 5330 5333 5337 5341 5345 5347 5350 5353 5356 5361 5365 5370 5375 5380 5385 5389 5393 5397 5401 5404 5408 5410
5286 5285 5285 5285 5286 5287 5288 5289 5289 5290 5291 5293 5295 5297 5299 5301 5303 5307 5310 5314 5318 5322 5324 5328 5332 5336 5339 5341 5344 5348 5352 5356 5361 5366 5371 5376 5380 5384 5388 5392 5395 5399 5402 5404
5277 5277 5278 5279 5279 5280 5282 5282 5283 5285 5286 5289 5291 5292 5294 5296 5299 5301 5304 5307 5311 5315 5318 5322 5326 5331 5334 5337 5340 5344 5348 5352 5357 5362 5367 5371 5376 5379 5383 5387 5390 5394 5396 5398
5271 5271 5272 5273 5274 5275 5276 5277 5278 5279 5280 5282 5284 5287 5289 5291 5294 5296 5299 5302 5305 5308 5312 5317 5321 5325 5329 5333 5337 5340 5344 5349 5353 5358 5363 5367 5371 5375 5378 5382 5386 5389 5391 5393